Weather in Kiyeva

Russia / Tyumen Oblast     56°47′08″N   65°57′38″E
temp.,
°C
wind,
m/s
gust,
m/s
humid.,
%
clouds,
%
prec.,
mm/h
press.,
hPa
HPBL,
m
20 april, tue
tue2023:00−4ene25500 0.0 1034163
02:00−5e22524 0.0 103453
05:00−5sw11525 0.0 103511
08:00−2w34365 0.0 1034506
11:00+3w45305 0.0 10321231
14:00+7w68285 0.0 10281768
17:00+8wnw69315 0.0 10271808
20:00+5w47495 0.0 102690
21 april, wed
wed2123:00+3w411615 0.0 1026193
02:00+2nw411685 0.0 1026222
05:000nw47825 0.0 1028130
08:00+4n46745 0.0 1030336
11:00+8n56517 0.0 10311278
14:00+11n564479 0.0 10311671
17:00+11nne454387 0.0 10321710
20:00+7e365473 0.0 1034120
22 april, thu
thu2223:00+4ese35545 0.0 103687
02:00+3se36635 0.0 103795
05:00+1sse36705 0.0 1038110
08:00+5sse57575 0.0 1039366
11:00+10sse67435 0.0 1039975
14:00+12s674070 0.0 10381561
17:00+12s674013 0.0 10381693
20:00+9sse61151100 0.0 1038311
23 april, fri
fri2323:00+7sse61449100 0.0 1037415
02:00+6sse6135095 0.0 1037373
05:00+4sse4105984 0.0 1036221
08:00+7s6105799 0.0 1036364
11:00+12s7941100 0.0 1036925
14:00+13s7935100 0.0 10351482
17:00+12s6840100 0.0 10341225
20:00+9sse51047100 0.0 1034294
24 april, sat
sat2423:00+7sse51150100 0.0 1032281
02:00+6sse41055100 0.0 1031238
05:00+6sse4956100 0.0 1030207
08:00+7sse4751100 0.0 1030276
11:00+11sse5739100 0.0 1028708
14:00+12ssw5738100 0.0 10271308
17:00+11se4748100 0.0 10261259
20:00+9se51044100 0.0 1025339